Regional Weather Roundup
Issued by NWS New Orleans/Baton Rouge, LA

Home | Current Version | Previous Version | Text Only | Print | Product List | Glossary On
Versions: 1 2 3 4 5 6 7 8 9 10 11 12 13 14 15 16 17 18 19 20 21 22 23 24 25 26 27 28 29 30 31 32 33 34 35 36 37 38 39 40 41 42 43 44 45 46 47 48 49 50
360
ASUS44 KLIX 220801
RWRLIX
NEW ORLEANS REGIONAL WEATHER ROUNDUP
NATIONAL WEATHER SERVICE NEW ORLEANS LA
300 AM CDT MON SEP 22 2014

NOTE: "FAIR" INDICATES FEW OR NO CLOUDS BELOW 12,000 FEET WITH NO
      SIGNIFICANT WEATHER AND/OR OBSTRUCTIONS TO VISIBILITY.
      SKY/WX - SKY CONDITION AND SIGNIFICANT WEATHER.
      TMP - AIR TEMPERATURE.     DP    - DEWPOINT TEMPERATURE.
      RH  - RELATIVE HUMIDITY.   PRES  - PRESSURE.
      HI  - HEAT INDEX.          WCI   - WIND CHILL INDEX.

*  THESE STATIONS ARE NOT NWS OR FAA STATIONS AND ARE NOT UNDER
   NWS QUALITY CONTROL.

LAZ038-040-048-061>063-065>067-069-220900-
SOUTHEAST LOUISIANA

CITY           SKY/WX    TMP DP  RH WIND       PRES   REMARKS
N.O. AUDUBON     N/A     73  73 100 MISG        N/A
N.O. INTL ARPT PTCLDY    74  69  85 CALM      30.00F
N.O. LAKEFRONT CLEAR     79  71  76 N5        30.00F
N.O. DOWNTOWN*   N/A     77  66  69 CALM      30.00F
SLIDELL        CLEAR     69  65  86 CALM      30.00F
BATON ROUGE    CLEAR     69  67  93 CALM      30.02R
BOOTHVILLE     CLEAR     80  73  79 NE3       29.99S
BELLE CHASSE   CLEAR     71  67  87 CALM      29.99F
BOGALUSA*        N/A     67  64  90 CALM      30.03S FOG
GALLIANO*      NOT AVBL
NEW ROADS*       N/A     69  68  98 CALM      30.02S FOG
GONZALES*        N/A     68  68 100 CALM      30.00F
HAMMOND*       NOT AVBL
HOUMA*         CLEAR     71  67  85 NW3       30.00S
PORT FOURCHON* SUNNY     79  73  83 NE6       30.01F

$$

MSZ070-080>082-220900-
SOUTHERN MISSISSIPPI

CITY           SKY/WX    TMP DP  RH WIND       PRES   REMARKS
MCCOMB         CLEAR     69  66  90 CALM      30.02F
GULFPORT       CLEAR     71  68  90 CALM      29.99F
BILOXI         CLEAR     74  71  91 N2        30.00S
PASCAGOULA     CLEAR     65  64  97 CALM      30.00S

$$

COASTAL OBSERVATIONS
LAKE AND NEARSHORE STATIONS

STATION/POSITION TIME  TEMP    WIND        PRES    WAVE
                       AIR SEA DIR/SP/G            HT/PER
                 (UTC) (F)     (DEG/KT/KT) (MB)    (FT/S)
PASCAGOULA       0700   73     350/  5/  5 1015.3
WAVELAND YACHT   0700   74     330/  5/  5 1015.2
GRAND ISLE       0700   80 82   60/  5/  6 1016.0
SOUTHWEST PASS   0700   83 89   80/ 11/ 13 1015.4
NEW CANAL        0700   80 81  360/  2/  3 1016.4
SHELL BEACH      0700   80 78  360/  4/  5 1015.6

OFFSHORE STATIONS

STATION/POSITION TIME  TEMP    WIND        PRES    WAVE
                       AIR SEA DIR/SP/G            HT/PER
                 (UTC) (F)     (DEG/KT/KT) (MB)    (FT/S)
64 S DAUPHIN ISL 0655   82 84  100/ 10/ 12 1015.1    2/ 5

$$




USA.gov is the U.S. government's official web portal to all federal, state and local government web resources and services.